STARLINK-2731 (48651 NORAD) Tracking and Keplerian Element Data

This shows tracking and keplerian element data for the satellite.

Feedback or suggestion? Click here.




ElementValue
Catalog48651
NameSTARLINK-2731
Epoch Orbit2237
Epoch Day287.96392827
Epoch Year2021
RAAN134.48
Inclination53.0501
Eccentricity0.0002063
Argument of Perigee79.0245
Mean Anonmoly281.0976
Mean Motion15.06388596
Decay Rate-9.18E-06
L11 48651U 21044P 21287.96392827 -.00000918 00000-0 -42765-4 0 9999
L22 48651 53.0501 134.4800 0002063 79.0245 281.0976 15.06388596 22376

Live tracking and technical data element details for STARLINK-2731 (NORAD 48651). STARLINK-2731 can be tracked NOW for your location showing map with azimuth and elevation plus other details from your city location.

Track the satellite on the map from your city or location and see movement details for azimuth, elevation, latitude, longitude, range, height, and movement on the map or in text.







IsCatalogInMostPopularTable: catalog: 48651, numindb: 29
Update: records affected: 1



GetName: 48651 STARLINK-2731

Hit Count: updated at: Tue, 19 Oct 2021 08:46:21 GMT